Location: Besigheim
(48.9980°N, 9.1427°E)
Time: 11:20:39
(UTC+00:00)

SL-24 R/B - RUBIN 2 - Pass Details

Date: 23 February 2026
Orbit: 603 x 984 km, 64.6° (Epoch: 8 March)

Event Time Altitude Azimuth Distance (km) Brightness Sun altitude
Exits shadow 03:59:27 10° 342° (NNW) 1,995 6.1 -23.3°
Reaches altitude 10° 03:59:31 10° 342° (NNW) 1,988 6.1 -23.3°
Maximum altitude 04:00:38 11° 357° (N) 1,925 6.2 -23.1°
Drops below altitude 10° 04:01:45 10° 12° (NNE) 1,970 6.4 -22.9°
Sets 04:05:54 0° 51° (NE) 2,862 8.0 -22.3°
